This demonstration page uses our WeatherBlox Daily Observations layout. Learn more.

Left ArrowRight Arrow

36.17497, -115.13722

Hourly Observations for January 8, 2016

Temp ( °F °C ) Dew Point ( °F °C ) Humidity (%) Winds ( mph kmh ) Pressure ( in mb ) Visibility ( mi km ) Precip ( " mm )
12:53 am 00:53 Partly Cloudy 45 7.2 33 0.6 63 63 N 7 11 29.84 1011 10 16.0934 0 0
1:53 am 01:53 Cloudy 45 7.2 32 0 61 61 NW 7 11 29.85 1011 10 16.0934 0 0
2:53 am 02:53 Mostly Cloudy 44 6.7 32 0 63 63 NW 3 6 29.86 1011 10 16.0934 0 0
3:53 am 03:53 Partly Cloudy 42 5.6 33 0.6 71 71 NNE 5 7 29.86 1011 10 16.0934 0 0
4:53 am 04:53 Mostly Clear 41 5 32 0 70 70 Calm 29.88 1012 10 16.0934 0 0
5:53 am 05:53 Mostly Cloudy 42 5.6 32 0 68 68 W 3 6 29.91 1013 10 16.0934 0 0
6:53 am 06:53 Mostly Cloudy 44 6.7 28 -2.2 53 53 NW 8 13 29.93 1013 10 16.0934 0 0
7:53 am 07:53 Partly Cloudy 45 7.2 28 -2.2 52 52 N 10 17 29.94 1014 10 16.0934 0 0
8:53 am 08:53 Sunny 49 9.4 26 -3.3 41 41 NNW 14 22 29.97 1015 10 16.0934 0 0
9:53 am 09:53 Sunny 51 10.6 26 -3.3 38 38 N 14 22 29.98 1015 10 16.0934 0 0
10:53 am 10:53 Sunny 52 11.1 25 -3.9 35 35 NNW 16 26 29.98 1015 10 16.0934 0 0
11:53 am 11:53 Mostly Sunny 53 11.7 25 -3.9 34 34 NNW 18 30 29.98 1015 10 16.0934 0 0
12:53 pm 12:53 Sunny 54 12.2 25 -3.9 33 33 NNW 20 31 29.98 1015 10 16.0934 0 0
1:53 pm 13:53 Mostly Sunny 54 12.2 26 -3.3 34 34 N 15 24 29.98 1015 10 16.0934 0 0
2:53 pm 14:53 Mostly Cloudy 54 12.2 25 -3.9 33 33 NNW 16 26 30.01 1016 10 16.0934 0 0
3:53 pm 15:53 Sunny 53 11.7 24 -4.4 32 32 NNW 16 26 30.04 1017 10 16.0934 0 0
4:53 pm 16:53 Clear 51 10.6 25 -3.9 36 36 N 12 19 30.06 1018 10 16.0934 0 0
5:53 pm 17:53 Clear 49 9.4 27 -2.8 43 43 N 8 13 30.08 1019 10 16.0934 0 0
6:53 pm 18:53 Clear 47 8.3 28 -2.2 48 48 N 7 11 30.09 1019 10 16.0934 0 0
7:53 pm 19:53 Clear 46 7.8 25 -3.9 44 44 NNW 7 11 30.11 1020 10 16.0934 0 0
8:53 pm 20:53 Clear 43 6.1 27 -2.8 53 53 N 7 11 30.14 1021 10 16.0934 0 0
9:53 pm 21:53 Clear 45 7.2 25 -3.9 46 46 N 10 17 30.14 1021 10 16.0934 0 0
10:53 pm 22:53 Clear 44 6.7 25 -3.9 47 47 N 12 19 30.16 1021 10 16.0934 0 0
11:53 pm 23:53 Clear 43 6.1 24 -4.4 47 47 NW 13 20 30.16 1021 10 16.0934 0 0

Powered by AerisWeather